Location: Stara Lesna
(49.1528°N, 20.2911°E)
Time: 01:58:55
(UTC+02:00)

Cosmos 1140 Rocket - Pass Details

Date: 13 July 2020
Orbit: 744 x 768 km, 74.1° (Epoch: 11 August)

Event Time Altitude Azimuth Distance (km) Brightness Sun altitude
Exits shadow 03:32:06 13° 225° (SW) 2,103 5.1 -9.9°
Maximum altitude 03:36:38 50° 299° (WNW) 970 4.0 -9.4°
Drops below altitude 10° 03:41:45 10° 15° (NNE) 2,315 7.1 -8.9°
Sets 03:44:13 0° 21° (NNE) 3,247 8.3 -8.6°
